VQBOS LICG-LICD

Flight info

Callsign VQBOS
Flight time 0h 35m
Altitude 31000
Route N0460F310 DOBIX M740 LPD
Aircraft B738/M-Q/L

Departure

Time 2026-05-05 07:25
Airport Pantelleria Airport (LICG)

Arrival

Time 2026-05-05 08:00
Airport Lampedusa Airport (LICD)
Time Latitude Longitude Altitude Speed Heading
2026-05-05 07:10 36.81914 11.96880 632 ft 0 kts 140°
2026-05-05 07:22 36.81888 11.96904 632 ft 11 kts 154°
2026-05-05 07:22 36.81828 11.96962 639 ft 12 kts 125°
2026-05-05 07:22 36.81751 11.96974 641 ft 12 kts 165°
2026-05-05 07:22 36.81707 11.97055 646 ft 11 kts 109°
2026-05-05 07:23 36.81715 11.97184 651 ft 18 kts 77°
2026-05-05 07:23 36.81742 11.97332 658 ft 17 kts 77°
2026-05-05 07:23 36.81774 11.97471 662 ft 16 kts 69°
2026-05-05 07:23 36.81775 11.97544 663 ft 6 kts 163°
2026-05-05 07:24 36.81757 11.97508 662 ft 6 kts 292°
2026-05-05 07:24 36.81756 11.97450 659 ft 8 kts 256°
2026-05-05 07:24 36.81713 11.97225 656 ft 72 kts 257°
2026-05-05 07:24 36.81510 11.96164 664 ft 170 kts 260°
2026-05-05 07:25 36.81200 11.94567 1344 ft 202 kts 254°
2026-05-05 07:25 36.80821 11.92805 2146 ft 211 kts 249°
2026-05-05 07:25 36.80470 11.91044 2874 ft 218 kts 258°
2026-05-05 07:25 36.80289 11.89063 3264 ft 238 kts 261°
2026-05-05 07:26 36.79747 11.87145 3921 ft 236 kts 229°
2026-05-05 07:26 36.78372 11.86086 4621 ft 237 kts 190°
2026-05-05 07:26 36.76743 11.86318 5383 ft 241 kts 162°
2026-05-05 07:26 36.75152 11.86973 6176 ft 244 kts 162°
2026-05-05 07:27 36.73513 11.87612 6912 ft 250 kts 164°
2026-05-05 07:27 36.71800 11.88248 7556 ft 265 kts 163°
2026-05-05 07:27 36.70167 11.89376 8361 ft 275 kts 139°
2026-05-05 07:27 36.68911 11.91224 8881 ft 282 kts 127°
2026-05-05 07:28 36.67786 11.93250 9083 ft 286 kts 126°
2026-05-05 07:28 36.66659 11.95328 9122 ft 307 kts 125°
2026-05-05 07:28 36.65384 11.97657 9134 ft 343 kts 126°
2026-05-05 07:28 36.63965 12.00216 9120 ft 373 kts 126°
2026-05-05 07:29 36.62457 12.02903 9110 ft 377 kts 126°
2026-05-05 07:29 36.60893 12.05539 9090 ft 380 kts 134°
2026-05-05 07:29 36.58771 12.07452 9109 ft 379 kts 155°
2026-05-05 07:29 36.56258 12.08363 9110 ft 377 kts 172°
2026-05-05 07:30 36.53665 12.08847 9101 ft 377 kts 173°
2026-05-05 07:30 36.48503 12.09758 9094 ft 376 kts 173°
2026-05-05 07:30 36.45905 12.10223 9095 ft 376 kts 172°
2026-05-05 07:31 36.43313 12.10695 9098 ft 376 kts 172°
2026-05-05 07:31 36.40722 12.11173 9097 ft 376 kts 172°
2026-05-05 07:31 36.38131 12.11655 9099 ft 376 kts 172°
2026-05-05 07:31 36.35539 12.12140 9094 ft 376 kts 172°
2026-05-05 07:32 36.32945 12.12627 9094 ft 376 kts 172°
2026-05-05 07:32 36.30389 12.13107 9096 ft 376 kts 172°
2026-05-05 07:32 36.27805 12.13594 9097 ft 376 kts 172°
2026-05-05 07:32 36.25212 12.14081 9097 ft 376 kts 172°
2026-05-05 07:33 36.22623 12.14567 9095 ft 376 kts 172°
2026-05-05 07:33 36.20030 12.15054 9102 ft 376 kts 172°
2026-05-05 07:33 36.17444 12.15539 9099 ft 376 kts 172°
2026-05-05 07:33 36.14856 12.16023 9099 ft 376 kts 172°
2026-05-05 07:34 36.12265 12.16508 9094 ft 376 kts 172°
2026-05-05 07:34 36.09675 12.16994 9097 ft 376 kts 172°
2026-05-05 07:34 36.07087 12.17478 9093 ft 376 kts 172°
2026-05-05 07:34 36.04502 12.17961 9094 ft 376 kts 172°
2026-05-05 07:35 36.01949 12.18437 9096 ft 376 kts 172°
2026-05-05 07:35 35.99354 12.18922 9097 ft 376 kts 172°
2026-05-05 07:35 35.96766 12.19404 9096 ft 376 kts 172°
2026-05-05 07:35 35.94181 12.19886 9091 ft 376 kts 172°
2026-05-05 07:36 35.91590 12.20369 9090 ft 376 kts 172°
2026-05-05 07:36 35.88996 12.20851 9090 ft 376 kts 172°
2026-05-05 07:36 35.86418 12.21331 9088 ft 371 kts 172°
2026-05-05 07:36 35.83921 12.21796 8873 ft 357 kts 172°
2026-05-05 07:37 35.81540 12.22239 8544 ft 344 kts 172°
2026-05-05 07:37 35.79223 12.22669 8286 ft 330 kts 172°
2026-05-05 07:37 35.76988 12.23084 7985 ft 320 kts 172°
2026-05-05 07:37 35.74810 12.23487 7633 ft 313 kts 171°
2026-05-05 07:38 35.72676 12.23883 7274 ft 307 kts 171°
2026-05-05 07:38 35.70577 12.24271 6917 ft 302 kts 171°
2026-05-05 07:38 35.68512 12.24653 6563 ft 298 kts 171°
2026-05-05 07:38 35.66473 12.25031 6193 ft 294 kts 171°
2026-05-05 07:39 35.64459 12.25403 5826 ft 291 kts 171°
2026-05-05 07:39 35.62464 12.25772 5449 ft 288 kts 171°
2026-05-05 07:39 35.60504 12.26134 5073 ft 280 kts 171°
2026-05-05 07:39 35.58616 12.26483 4697 ft 269 kts 171°
2026-05-05 07:40 35.56800 12.26817 4344 ft 256 kts 170°
2026-05-05 07:40 35.55090 12.27133 3975 ft 241 kts 170°
2026-05-05 07:40 35.53474 12.27431 3602 ft 228 kts 170°
2026-05-05 07:40 35.51944 12.27713 3248 ft 216 kts 170°
2026-05-05 07:41 35.50495 12.27980 2882 ft 205 kts 170°
2026-05-05 07:41 35.49110 12.28235 2493 ft 197 kts 171°
2026-05-05 07:41 35.47777 12.28480 2122 ft 190 kts 170°
2026-05-05 07:41 35.46622 12.29003 1992 ft 171 kts 142°
2026-05-05 07:42 35.45932 12.30086 1985 ft 155 kts 117°
2026-05-05 07:42 35.45706 12.31349 1973 ft 157 kts 90°
2026-05-05 07:42 35.45872 12.32663 1978 ft 154 kts 86°
2026-05-05 07:42 35.46033 12.33938 1993 ft 150 kts 86°
2026-05-05 07:43 35.46199 12.35227 1900 ft 155 kts 85°
2026-05-05 07:43 35.46371 12.36518 1772 ft 149 kts 86°
2026-05-05 07:43 35.46535 12.37704 1648 ft 138 kts 86°
2026-05-05 07:43 35.46690 12.38852 1527 ft 131 kts 86°
2026-05-05 07:44 35.46834 12.39915 1490 ft 123 kts 87°
2026-05-05 07:44 35.46972 12.40960 1539 ft 125 kts 86°
2026-05-05 07:44 35.47119 12.42062 1469 ft 131 kts 86°
2026-05-05 07:44 35.47267 12.43146 1349 ft 126 kts 87°
2026-05-05 07:45 35.47410 12.44207 1259 ft 125 kts 87°
2026-05-05 07:45 35.47550 12.45250 1151 ft 131 kts 87°
2026-05-05 07:45 35.47698 12.46344 1034 ft 128 kts 85°
2026-05-05 07:45 35.47844 12.47416 1012 ft 125 kts 86°
2026-05-05 07:46 35.47985 12.48451 992 ft 120 kts 86°
2026-05-05 07:46 35.48076 12.49126 981 ft 121 kts 85°
2026-05-05 07:46 35.48218 12.50171 1003 ft 125 kts 85°
2026-05-05 07:46 35.48361 12.51230 1011 ft 127 kts 86°
2026-05-05 07:47 35.48510 12.52325 995 ft 132 kts 86°
2026-05-05 07:47 35.48660 12.53421 863 ft 127 kts 85°
2026-05-05 07:47 35.48808 12.54466 762 ft 124 kts 85°
2026-05-05 07:47 35.48956 12.55560 726 ft 133 kts 86°
2026-05-05 07:48 35.49111 12.56662 618 ft 132 kts 85°
2026-05-05 07:48 35.49248 12.57735 483 ft 123 kts 86°
2026-05-05 07:48 35.49385 12.58749 330 ft 117 kts 87°
2026-05-05 07:48 35.49521 12.59774 206 ft 126 kts 87°
2026-05-05 07:49 35.49664 12.60831 63 ft 125 kts 85°
2026-05-05 07:49 35.49807 12.61901 84 ft 126 kts 85°
2026-05-05 07:49 35.49957 12.63084 542 ft 147 kts 84°
2026-05-05 07:49 35.50134 12.64444 619 ft 173 kts 84°
2026-05-05 07:50 35.50322 12.65948 630 ft 188 kts 85°
2026-05-05 07:50 35.50518 12.67538 995 ft 187 kts 85°
2026-05-05 07:50 35.50697 12.69195 1427 ft 202 kts 93°
2026-05-05 07:50 35.50279 12.70782 1880 ft 197 kts 130°
2026-05-05 07:51 35.49172 12.71696 2332 ft 195 kts 166°
2026-05-05 07:51 35.47831 12.71578 2761 ft 200 kts 200°
2026-05-05 07:51 35.46756 12.70475 2959 ft 207 kts 234°
2026-05-05 07:51 35.46300 12.68749 3008 ft 227 kts 259°
2026-05-05 07:52 35.46063 12.66775 2856 ft 235 kts 259°
2026-05-05 07:52 35.45842 12.64791 2703 ft 234 kts 259°
2026-05-05 07:52 35.45624 12.62843 2551 ft 234 kts 259°
2026-05-05 07:52 35.45403 12.60873 2402 ft 233 kts 259°
2026-05-05 07:53 35.45174 12.58893 2241 ft 234 kts 256°
2026-05-05 07:53 35.44759 12.56993 2112 ft 225 kts 250°
2026-05-05 07:53 35.44309 12.55225 1961 ft 209 kts 249°
2026-05-05 07:53 35.43904 12.53579 1834 ft 195 kts 250°
2026-05-05 07:54 35.43540 12.52010 1664 ft 187 kts 252°
2026-05-05 07:54 35.43260 12.50433 1553 ft 190 kts 254°
2026-05-05 07:54 35.43004 12.48868 1508 ft 186 kts 261°
2026-05-05 07:54 35.43315 12.47308 1381 ft 198 kts 302°
2026-05-05 07:55 35.44379 12.46273 1254 ft 194 kts 343°
2026-05-05 07:55 35.45635 12.46267 1108 ft 177 kts 26°
2026-05-05 07:55 35.46595 12.47104 1036 ft 161 kts 47°
2026-05-05 07:55 35.47443 12.48023 1028 ft 159 kts 47°
2026-05-05 07:56 35.48216 12.48887 971 ft 144 kts 57°
2026-05-05 07:56 35.48508 12.49960 1018 ft 132 kts 88°
2026-05-05 07:56 35.48307 12.51006 1008 ft 125 kts 133°
2026-05-05 07:56 35.47519 12.51350 997 ft 126 kts 186°
2026-05-05 07:57 35.46634 12.51389 845 ft 143 kts 158°
2026-05-05 07:57 35.46319 12.52250 812 ft 133 kts 70°
2026-05-05 07:57 35.46844 12.53245 747 ft 134 kts 63°
2026-05-05 07:57 35.47343 12.54224 1237 ft 129 kts 64°
2026-05-05 07:58 35.47878 12.55185 1316 ft 148 kts 57°
2026-05-05 07:58 35.48558 12.56104 1026 ft 141 kts 52°
2026-05-05 07:58 35.49179 12.56954 683 ft 129 kts 61°
2026-05-05 07:58 35.49480 12.57943 438 ft 122 kts 90°
2026-05-05 07:59 35.49516 12.58973 317 ft 124 kts 92°
2026-05-05 07:59 35.49582 12.60041 174 ft 126 kts 89°
2026-05-05 07:59 35.49701 12.61076 55 ft 113 kts 85°
2026-05-05 07:59 35.49794 12.61849 50 ft 62 kts 81°
2026-05-05 08:00 35.49823 12.62134 62 ft 12 kts 89°
2026-05-05 08:00 35.49852 12.62150 60 ft 6 kts 304°
2026-05-05 08:00 35.49846 12.62092 57 ft 8 kts 258°
2026-05-05 08:00 35.49832 12.62010 53 ft 11 kts 258°